Overview Statistics Trail Chart Weather Telemetry Raw packets
 

This is the latest recevied weather packets stored in our database for station/object EA5GTE-12. If no packets are shown the sender has not sent any weather packets the latest 10 day(s).

<< 8 9 10 11 12 13 14 >>
Time Temp. Humidity Pressure Rain* Wind** Luminosity Snow
1788393221 23.33° C 88% 945.3 hPa - - - -
1788392321 23.89° C 85% 945.1 hPa - - - -
1788391421 23.89° C 82% 945.1 hPa - - - -
1788390521 24.44° C 81% 945.1 hPa - - - -
1788389621 24.44° C 79% 945 hPa - - - -
1788388721 25° C 79% 945 hPa - - - -
1788386923 25° C 81% 944.5 hPa - - - -
1788386023 25.56° C 80% 944.3 hPa - - - -
1788385123 25.56° C 79% 944.1 hPa - - - -
1788384223 25.56° C 76% 944.2 hPa - - - -
1788383323 26.11° C 72% 944.1 hPa - - - -
1788382423 26.67° C 66% 944 hPa - - - -
1788381523 26.67° C 61% 944 hPa - - - -
1788380623 27.22° C 60% 943.7 hPa - - - -
1788379723 27.78° C 61% 943.6 hPa - - - -
1788378823 27.78° C 64% 943.4 hPa - - - -
1788377923 27.78° C 67% 943.3 hPa - - - -
1788377023 28.33° C 65% 943 hPa - - - -
1788376123 28.89° C 62% 942.7 hPa - - - -
1788375223 28.89° C 62% 942.6 hPa - - - -
1788374323 29.44° C 58% 942.4 hPa - - - -
1788373423 30.56° C 52% 942.3 hPa - - - -
1788372523 31.67° C 45% 942.3 hPa - - - -
1788371623 32.78° C 40% 942.1 hPa - - - -
1788370723 34.44° C 34% 941.9 hPa - - - -

* Rain since midnight (hover to see other rain measurements)
** Current wind speed in m/s (hover to see current wind gust speed)